Location: Forestville
(38.4740°N, 122.8890°W)
Time: 06:09:24
(UTC-07:00)

Amateur Radio Satellites - All Passes

Search period start: 30 July 2014 05:39
Search period end: 31 July 2014 05:39
Location: Forestville, 38.4740°N, 122.8890°W

Satellite Date Start Highest point End Downlink Frequencies (MHz)
Time Altitude Azimuth
ISS 30 Jul 06:16:58 06:20:20 85° 39° (NE) 06:23:41 145.800 FM
Hamsat 30 Jul 06:20:09 06:23:21 20° 94° (E) 06:26:32 145.90 MHz
JAS-1B 30 Jul 06:23:10 06:27:48 15° 311° (NW) 06:32:10 435.800 - 435.900 CW/SSB
Uosat F 30 Jul 06:24:52 06:29:13 30° 292° (WNW) 06:33:33 435.120 FM
KITSAT 1 30 Jul 06:26:10 06:34:14 78° 116° (ESE) 06:42:20 435.175 FM
AO-7 30 Jul 06:27:09 06:35:17 60° 293° (WNW) 06:43:22 29.400 - 29.500 MHz
JAS-2 30 Jul 06:40:41 06:45:29 27° 93° (E) 06:49:56 435.800 - 435.900 CW/SSB, 435.910 FM
Saudisat 1A 30 Jul 06:53:21 06:56:57 25° 112° (ESE) 07:00:35 436.775 MHz
MaSat-1 30 Jul 06:57:10 07:02:29 72° 64° (ENE) 07:07:25 437.345 MHz
STRAND 1 30 Jul 07:10:50 07:15:59 89° 76° (ENE) 07:21:09 ?
PANSAT 30 Jul 07:14:48 07:17:21 17° 187° (S) 07:19:54 not established
SO-67 30 Jul 07:27:53 07:29:47 14° 93° (E) 07:31:42 435.3500 MHz FM
Hamsat 30 Jul 07:55:30 07:59:21 32° 289° (WNW) 08:03:12 145.90 MHz
PCSat 30 Jul 08:18:01 08:18:39 10° 39° (NE) 08:19:17 145.825 MHz
AO-7 30 Jul 08:23:13 08:26:21 13° 313° (NW) 08:29:29 29.400 - 29.500 MHz
KITSAT 1 30 Jul 08:23:52 08:30:27 27° 317° (NW) 08:37:04 435.175 FM
JAS-2 30 Jul 08:25:25 08:30:41 35° 293° (WNW) 08:35:30 435.800 - 435.900 CW/SSB, 435.910 FM
Saudisat 1A 30 Jul 08:32:25 08:36:24 32° 309° (NW) 08:40:24 436.775 MHz
MaSat-1 30 Jul 08:36:43 08:39:03 13° 262° (W) 08:41:19 437.345 MHz
SO-67 30 Jul 08:59:53 09:02:54 28° 288° (WNW) 09:05:54 435.3500 MHz FM
Sapphire 30 Jul 09:24:57 09:29:43 30° 53° (NE) 09:34:27 437.095 MHz 1200 baud AX-25 AFSK
HO-68 30 Jul 09:30:10 09:36:26 32° 97° (E) 09:42:39 435.675 MHz FM
PCSat 30 Jul 09:57:51 10:03:14 60° 59° (ENE) 10:08:34 145.825 MHz
UKube-1 30 Jul 10:16:30 10:20:45 50° 100° (E) 10:24:57 145.840 MHz, 145.915 MHz
Oscar 11 30 Jul 10:59:56 11:04:17 83° 102° (ESE) 11:08:38 145.825 FM, Beacon 2401.500 USB
Sapphire 30 Jul 11:08:13 11:13:09 37° 250° (WSW) 11:18:04 437.095 MHz 1200 baud AX-25 AFSK
HO-68 30 Jul 11:17:31 11:24:14 46° 293° (WNW) 11:30:56 435.675 MHz FM
FUNcube-1 30 Jul 11:25:40 11:29:48 56° 100° (E) 11:33:57 145.950 - 145.970 MHz USB
RS-15 30 Jul 11:35:07 11:40:32 15° 98° (E) 11:45:53 29.354 - 29.394 USB, Beacon 29.352 USB
PCSat 30 Jul 11:42:41 11:46:06 17° 256° (WSW) 11:49:31 145.825 MHz
UKube-1 30 Jul 11:54:12 11:56:31 14° 296° (WNW) 11:58:49 145.840 MHz, 145.915 MHz
SO-50 30 Jul 11:54:44 11:58:38 31° 113° (ESE) 12:02:36 436.795 FM
Oscar 16 30 Jul 12:47:09 12:50:36 19° 64° (ENE) 12:54:03 437.025 USB, Beacon 2401.1428
FUNcube-1 30 Jul 13:04:13 13:05:43 12° 295° (WNW) 13:07:14 145.950 - 145.970 MHz USB
ITAMSAT 1 30 Jul 13:12:19 13:15:02 14° 62° (ENE) 13:17:45 435.822 SSB
JAS-1B 30 Jul 13:22:34 13:29:27 24° 55° (NE) 13:36:42 435.800 - 435.900 CW/SSB
Uribyol 2 30 Jul 13:29:53 13:33:50 22° 65° (ENE) 13:37:47 436.500 FM
AO-27 30 Jul 13:30:33 13:34:29 22° 65° (ENE) 13:38:24 436.795 MHz FM
SO-50 30 Jul 13:35:20 13:39:10 28° 311° (NW) 13:43:05 436.795 FM
RS-15 30 Jul 13:39:50 13:50:58 77° 117° (ESE) 14:01:52 29.354 - 29.394 USB, Beacon 29.352 USB
UOSAT-12 30 Jul 13:46:24 13:50:24 31° 113° (ESE) 13:54:30 437.025 FM, 437.400 FM
Oscar 19 30 Jul 13:55:40 14:00:46 80° 75° (ENE) 14:05:55 437.125 CW, 437.150 USB
AO-Echo 30 Jul 13:58:59 14:03:56 41° 71° (ENE) 14:08:53 ?
Gurwin Techsat 1B 30 Jul 14:02:52 14:06:22 18° 63° (ENE) 14:09:52 435.225 FM
KITSAT 1 30 Jul 14:21:28 14:28:28 31° 46° (NE) 14:35:25 435.175 FM
Oscar 16 30 Jul 14:24:34 14:29:32 51° 260° (W) 14:34:32 437.025 USB, Beacon 2401.1428
ITAMSAT 1 30 Jul 14:48:43 14:53:54 70° 258° (WSW) 14:59:07 435.822 SSB
Uribyol 2 30 Jul 15:08:06 15:13:01 42° 261° (W) 15:17:56 436.500 FM
AO-27 30 Jul 15:08:43 15:13:40 44° 261° (W) 15:18:39 436.795 MHz FM
JAS-1B 30 Jul 15:09:41 15:18:34 88° 255° (WSW) 15:28:32 435.800 - 435.900 CW/SSB
TMSAT-1 30 Jul 15:15:04 15:20:16 61° 73° (ENE) 15:25:30 436.925 FM
Saudisat 1A 30 Jul 15:21:36 15:24:24 16° 44° (NE) 15:27:12 436.775 MHz
UOSAT-12 30 Jul 15:26:28 15:30:31 29° 310° (NW) 15:34:38 437.025 FM, 437.400 FM
AO-7 30 Jul 15:32:37 15:39:58 36° 61° (ENE) 15:47:18 29.400 - 29.500 MHz
AO-Echo 30 Jul 15:38:36 15:42:47 24° 266° (W) 15:47:00 ?
Oscar 19 30 Jul 15:39:52 15:40:41 10° 271° (W) 15:41:30 437.125 CW, 437.150 USB
Gurwin Techsat 1B 30 Jul 15:40:39 15:45:51 56° 260° (W) 15:51:05 435.225 FM
RS-15 30 Jul 15:54:44 16:04:22 33° 321° (NW) 16:14:00 29.354 - 29.394 USB, Beacon 29.352 USB
Uosat F 30 Jul 15:58:01 16:02:32 35° 69° (ENE) 16:07:05 435.120 FM
KITSAT 1 30 Jul 16:16:26 16:24:23 64° 246° (WSW) 16:32:18 435.175 FM
JAS-2 30 Jul 16:52:06 16:56:12 16° 59° (ENE) 17:00:09 435.800 - 435.900 CW/SSB, 435.910 FM
OPAL 30 Jul 16:56:57 17:01:48 43° 101° (E) 17:06:41 ?
TMSAT-1 30 Jul 16:57:34 17:00:34 15° 269° (W) 17:03:36 436.925 FM
Saudisat 1A 30 Jul 17:00:01 17:04:22 60° 242° (WSW) 17:08:41 436.775 MHz
JAS-1B 30 Jul 17:04:23 17:10:19 19° 275° (W) 17:16:40 435.800 - 435.900 CW/SSB
Hamsat 30 Jul 17:13:54 17:15:36 12° 65° (ENE) 17:17:19 145.90 MHz
AO-7 30 Jul 17:24:22 17:32:25 51° 258° (WSW) 17:40:32 29.400 - 29.500 MHz
Uosat F 30 Jul 17:37:13 17:41:20 25° 264° (W) 17:45:29 435.120 FM
RS-15 30 Jul 18:15:30 18:21:40 16° 355° (N) 18:27:52 29.354 - 29.394 USB, Beacon 29.352 USB
JAS-2 30 Jul 18:32:27 18:40:15 80° 74° (ENE) 18:47:33 435.800 - 435.900 CW/SSB, 435.910 FM
OPAL 30 Jul 18:36:32 18:40:23 22° 296° (WNW) 18:44:16 ?
Hamsat 30 Jul 18:47:01 18:51:05 53° 260° (W) 18:55:12 145.90 MHz
STRAND 1 30 Jul 19:23:22 19:27:58 33° 97° (E) 19:32:32 ?
SO-67 30 Jul 19:31:00 19:34:26 69° 77° (ENE) 19:37:54 435.3500 MHz FM
HO-68 30 Jul 19:58:28 20:03:40 22° 59° (ENE) 20:08:50 435.675 MHz FM
JAS-2 30 Jul 20:20:30 20:25:44 19° 269° (W) 20:30:48 435.800 - 435.900 CW/SSB, 435.910 FM
SO-50 30 Jul 20:27:31 20:31:18 23° 48° (NE) 20:35:06 436.795 FM
RS-15 30 Jul 20:30:58 20:39:42 26° 32° (NNE) 20:48:35 29.354 - 29.394 USB, Beacon 29.352 USB
MaSat-1 30 Jul 20:47:02 20:50:45 38° 107° (ESE) 20:55:03 437.345 MHz
STRAND 1 30 Jul 21:02:46 21:07:00 27° 293° (WNW) 21:11:13 ?
UKube-1 30 Jul 21:10:42 21:14:42 36° 71° (ENE) 21:18:43 145.840 MHz, 145.915 MHz
HO-68 30 Jul 21:43:31 21:50:40 71° 256° (WSW) 21:57:50 435.675 MHz FM
Oscar 11 30 Jul 21:53:27 21:57:38 53° 74° (ENE) 22:01:50 145.825 FM, Beacon 2401.500 USB
SO-50 30 Jul 22:07:30 22:12:03 45° 244° (WSW) 22:16:39 436.795 FM
UOSAT-12 30 Jul 22:17:24 22:21:01 21° 46° (NE) 22:24:36 437.025 FM, 437.400 FM
FUNcube-1 30 Jul 22:20:53 22:24:52 37° 72° (ENE) 22:28:46 145.950 - 145.970 MHz USB
MaSat-1 30 Jul 22:25:03 22:28:17 21° 308° (NW) 22:31:51 437.345 MHz
RS-15 30 Jul 22:43:00 22:54:07 78° 58° (ENE) 23:05:39 29.354 - 29.394 USB, Beacon 29.352 USB
UKube-1 30 Jul 22:47:59 22:51:00 18° 266° (W) 22:54:02 145.840 MHz, 145.915 MHz
ISS 30 Jul 22:58:04 23:01:21 63° 138° (SE) 23:04:40 145.800 FM
Oscar 11 30 Jul 23:32:27 23:34:07 12° 269° (W) 23:35:47 145.825 FM, Beacon 2401.500 USB
UOSAT-12 30 Jul 23:56:53 00:01:25 48° 244° (WSW) 00:05:53 437.025 FM, 437.400 FM
FUNcube-1 30 Jul 23:58:37 00:01:22 17° 266° (W) 00:04:07 145.950 - 145.970 MHz USB
Sapphire 31 Jul 00:05:22 00:10:13 35° 110° (ESE) 00:15:05 437.095 MHz 1200 baud AX-25 AFSK
ISS 31 Jul 00:35:50 00:38:20 19° 335° (NNW) 00:40:51 145.800 FM
PCSat 31 Jul 00:37:53 00:43:16 75° 115° (ESE) 00:48:41 145.825 MHz
RS-15 31 Jul 00:56:50 01:05:20 26° 257° (WSW) 01:14:07 29.354 - 29.394 USB, Beacon 29.352 USB
Sapphire 31 Jul 01:48:51 01:53:37 31° 307° (NW) 01:58:26 437.095 MHz 1200 baud AX-25 AFSK
Oscar 19 31 Jul 02:09:07 02:13:43 32° 97° (E) 02:18:18 437.125 CW, 437.150 USB
AO-Echo 31 Jul 02:09:45 02:12:13 14° 90° (E) 02:14:39 ?
PCSat 31 Jul 02:23:47 02:27:17 17° 314° (NW) 02:30:48 145.825 MHz
Oscar 16 31 Jul 02:37:31 02:42:40 64° 101° (ESE) 02:47:47 437.025 USB, Beacon 2401.1428
JAS-1B 31 Jul 02:59:21 03:07:30 36° 92° (E) 03:14:29 435.800 - 435.900 CW/SSB
ITAMSAT 1 31 Jul 03:03:15 03:08:14 47° 100° (E) 03:13:11 435.822 SSB
Uribyol 2 31 Jul 03:21:59 03:27:09 77° 103° (ESE) 03:32:18 436.500 FM
AO-27 31 Jul 03:22:57 03:28:09 76° 103° (ESE) 03:33:19 436.795 MHz FM
TMSAT-1 31 Jul 03:32:56 03:37:24 27° 95° (E) 03:41:50 436.925 FM
AO-Echo 31 Jul 03:46:28 03:51:26 60° 287° (WNW) 03:56:12 ?
Oscar 19 31 Jul 03:48:32 03:52:57 29° 292° (WNW) 03:57:21 437.125 CW, 437.150 USB
ISS 31 Jul 03:52:35 03:54:06 12° 16° (NNE) 03:55:37 145.800 FM
Gurwin Techsat 1B 31 Jul 03:58:15 04:03:33 67° 102° (ESE) 04:08:49 435.225 FM
Uosat F 31 Jul 04:09:35 04:11:02 11° 90° (E) 04:12:29 435.120 FM
OPAL 31 Jul 04:10:37 04:15:30 66° 72° (ENE) 04:20:25 ?
Oscar 16 31 Jul 04:18:30 04:21:28 16° 297° (WNW) 04:24:25 437.025 USB, Beacon 2401.1428
ITAMSAT 1 31 Jul 04:43:39 04:47:22 20° 296° (WNW) 04:51:03 435.822 SSB
JAS-1B 31 Jul 04:49:25 04:58:13 51° 294° (WNW) 05:05:45 435.800 - 435.900 CW/SSB
KITSAT 1 31 Jul 04:49:59 04:55:47 22° 103° (ESE) 05:01:34 435.175 FM
Uribyol 2 31 Jul 05:03:44 05:05:57 13° 299° (WNW) 05:08:09 436.500 FM
AO-27 31 Jul 05:04:38 05:06:59 13° 299° (WNW) 05:09:20 436.795 MHz FM
MaSat-1 31 Jul 05:08:33 05:10:16 11° 45° (NE) 05:11:56 437.345 MHz
PANSAT 31 Jul 05:10:10 05:12:49 18° 175° (S) 05:15:27 not established
TMSAT-1 31 Jul 05:12:34 05:17:19 35° 291° (WNW) 05:22:03 436.925 FM
ISS 31 Jul 05:28:13 05:31:29 47° 35° (NE) 05:34:44 145.800 FM
